| time (UTC) | temp F | wind direction | speed MPH | gust MPH | rain 1hr in | rain 24hr in | rain mn in | humidity % | barometer mb |
| 20260510074505 | 58 | 355 | 9.0 | 18.0 | 0.00 | 0.00 | 0.00 | 63 | 1013.9 |
| 20260510073114 | 58 | 15 | 7.0 | 17.0 | 0.00 | 0.00 | 0.00 | 65 | 1014.0 |
| 20260510071558 | 57 | 360 | 9.0 | 13.0 | 0.00 | 0.00 | 0.00 | 67 | 1014.0 |
| 20260510070054 | 56 | 344 | 7.0 | 16.0 | 0.00 | 0.00 | 0.00 | 68 | 1014.0 |
| 20260510064551 | 56 | 5 | 6.0 | 13.0 | 0.00 | 0.00 | 0.00 | 70 | 1014.0 |
| 20260510063050 | 55 | 15 | 6.0 | 14.0 | 0.00 | 0.00 | 0.00 | 73 | 1014.0 |
| 20260510061546 | 55 | 355 | 6.0 | 14.0 | 0.00 | 0.00 | 0.00 | 74 | 1014.0 |
| 20260510060040 | 54 | 15 | 5.0 | 15.0 | 0.00 | 0.00 | 0.00 | 78 | 1014.1 |
| 20260510054539 | 53 | 355 | 6.0 | 16.0 | 0.00 | 0.00 | 0.00 | 81 | 1014.0 |
| 20260510053036 | 52 | 346 | 7.0 | 15.0 | 0.00 | 0.00 | 0.00 | 83 | 1014.0 |
| 20260510051532 | 51 | 39 | 6.0 | 12.0 | 0.00 | 0.00 | 0.00 | 84 | 1014.1 |
| 20260510050029 | 51 | 333 | 3.0 | 11.0 | 0.00 | 0.00 | 0.00 | 84 | 1014.0 |
| 20260510044527 | 50 | 347 | 5.0 | 11.0 | 0.00 | 0.00 | 0.00 | 84 | 1013.9 |
| 20260510043025 | 50 | 355 | 5.0 | 11.0 | 0.00 | 0.00 | 0.00 | 84 | 1013.8 |
| 20260510041521 | 50 | 346 | 5.0 | 11.0 | 0.00 | 0.00 | 0.00 | 84 | 1013.8 |
| 20260510040020 | 50 | 334 | 4.0 | 8.0 | 0.00 | 0.00 | 0.00 | 84 | 1013.8 |
| 20260510034525 | 50 | 5 | 2.0 | 8.0 | 0.00 | 0.00 | 0.00 | 84 | 1013.9 |
| 20260510033021 | 51 | 342 | 3.0 | 8.0 | 0.00 | 0.00 | 0.00 | 84 | 1013.9 |
| 20260510031513 | 51 | 345 | 2.0 | 6.0 | 0.00 | 0.00 | 0.00 | 84 | 1014.0 |
| 20260510030021 | 52 | 350 | 5.0 | 9.0 | 0.00 | 0.00 | 0.00 | 84 | 1014.0 |
| 20260510024510 | 52 | 5 | 4.0 | 8.0 | 0.00 | 0.00 | 0.00 | 83 | 1014.1 |
| 20260510023007 | 52 | 18 | 2.0 | 10.0 | 0.00 | 0.00 | 0.00 | 83 | 1014.1 |
| 20260510021509 | 52 | 28 | 3.0 | 9.0 | 0.00 | 0.00 | 0.00 | 83 | 1014.1 |
| 20260510020002 | 52 | 20 | 4.0 | 9.0 | 0.00 | 0.00 | 0.00 | 82 | 1014.2 |
| 20260510014602 | 52 | 20 | 3.0 | 10.0 | 0.00 | 0.00 | 0.00 | 81 | 1014.2 |
| 20260510013059 | 53 | 355 | 3.0 | 9.0 | 0.00 | 0.00 | 0.00 | 81 | 1014.3 |
| 20260510011556 | 53 | 336 | 3.0 | 8.0 | 0.00 | 0.00 | 0.00 | 80 | 1014.3 |
| 20260510010054 | 53 | 344 | 3.0 | 6.0 | 0.00 | 0.00 | 0.00 | 80 | 1014.4 |
| 20260510004552 | 53 | 350 | 4.0 | 8.0 | 0.00 | 0.00 | 0.00 | 80 | 1014.4 |
| 20260510003103 | 52 | 360 | 2.0 | 8.0 | 0.00 | 0.00 | 0.00 | 80 | 1014.5 |
| 20260510001549 | 52 | 350 | 3.0 | 8.0 | 0.00 | 0.00 | 0.00 | 80 | 1014.6 |
| 20260510000047 | 52 | 20 | 3.0 | 6.0 | 0.00 | 0.00 | 0.00 | 79 | 1014.7 |
| 20260509234546 | 53 | 345 | 3.0 | 5.0 | 0.00 | 0.00 | 0.00 | 78 | 1014.9 |
| 20260509233144 | 53 | 355 | 3.0 | 6.0 | 0.00 | 0.00 | 0.00 | 78 | 1014.9 |
| 20260509231541 | 53 | 21 | 2.0 | 5.0 | 0.00 | 0.00 | 0.00 | 77 | 1015.0 |
| 20260509230048 | 53 | 343 | 2.0 | 6.0 | 0.00 | 0.00 | 0.00 | 75 | 1015.1 |
| 20260509224547 | 54 | 350 | 2.0 | 6.0 | 0.00 | 0.00 | 0.00 | 74 | 1015.0 |
| 20260509223043 | 54 | 5 | 3.0 | 6.0 | 0.00 | 0.00 | 0.00 | 73 | 1014.9 |
| 20260509221534 | 54 | 355 | 4.0 | 8.0 | 0.00 | 0.00 | 0.00 | 72 | 1014.9 |
| 20260509220031 | 55 | 5 | 3.0 | 6.0 | 0.00 | 0.00 | 0.00 | 71 | 1014.9 |
| 20260509214530 | 55 | 41 | 3.0 | 8.0 | 0.00 | 0.00 | 0.00 | 70 | 1014.9 |
| 20260509213029 | 55 | 22 | 3.0 | 11.0 | 0.00 | 0.00 | 0.00 | 69 | 1014.9 |
| 20260509211527 | 55 | 13 | 4.0 | 10.0 | 0.00 | 0.00 | 0.00 | 67 | 1014.8 |
| 20260509210026 | 55 | 5 | 4.0 | 9.0 | 0.00 | 0.00 | 0.00 | 66 | 1014.7 |
| 20260509204524 | 56 | 351 | 4.0 | 8.0 | 0.00 | 0.00 | 0.00 | 63 | 1014.8 |
| 20260509203023 | 56 | 360 | 4.0 | 8.0 | 0.00 | 0.00 | 0.00 | 62 | 1014.7 |
| 20260509201520 | 57 | 325 | 3.0 | 9.0 | 0.00 | 0.00 | 0.00 | 62 | 1014.6 |
| 20260509200020 | 57 | 24 | 4.0 | 10.0 | 0.00 | 0.00 | 0.00 | 63 | 1014.7 |
| 20260509194522 | 58 | 342 | 3.0 | 8.0 | 0.00 | 0.00 | 0.00 | 64 | 1014.7 |
| 20260509193020 | 59 | 344 | 4.0 | 9.0 | 0.00 | 0.00 | 0.00 | 63 | 1014.5 |
| 20260509191518 | 60 | 355 | 4.0 | 10.0 | 0.00 | 0.00 | 0.00 | 62 | 1014.5 |
| 20260509190017 | 60 | 355 | 5.0 | 11.0 | 0.00 | 0.00 | 0.00 | 61 | 1014.5 |
| 20260509184525 | 61 | 336 | 6.0 | 11.0 | 0.00 | 0.00 | 0.00 | 61 | 1014.4 |
| 20260509183017 | 62 | 350 | 7.0 | 11.0 | 0.00 | 0.00 | 0.00 | 60 | 1014.5 |
| 20260509181515 | 63 | 326 | 4.0 | 11.0 | 0.00 | 0.00 | 0.00 | 59 | 1014.3 |
| 20260509180015 | 64 | 346 | 9.0 | 13.0 | 0.00 | 0.00 | 0.00 | 57 | 1014.3 |
| 20260509174515 | 65 | 345 | 7.0 | 16.0 | 0.00 | 0.00 | 0.00 | 55 | 1014.2 |
| 20260509173017 | 67 | 360 | 7.0 | 13.0 | 0.00 | 0.00 | 0.00 | 54 | 1014.1 |
| 20260509171513 | 68 | 306 | 6.0 | 13.0 | 0.00 | 0.00 | 0.00 | 52 | 1014.0 |
| 20260509170014 | 69 | 57 | 3.0 | 11.0 | 0.00 | 0.00 | 0.00 | 47 | 1014.0 |
| 20260509164511 | 70 | 33 | 5.0 | 12.0 | 0.00 | 0.00 | 0.00 | 47 | 1014.1 |
| 20260509163010 | 70 | 32 | 6.0 | 12.0 | 0.00 | 0.00 | 0.00 | 46 | 1014.2 |
| 20260509161508 | 70 | 360 | 6.0 | 10.0 | 0.00 | 0.00 | 0.00 | 44 | 1014.2 |
| 20260509160009 | 71 | 338 | 4.0 | 12.0 | 0.00 | 0.00 | 0.00 | 44 | 1014.2 |
| 20260509154508 | 71 | 324 | 7.0 | 12.0 | 0.00 | 0.00 | 0.00 | 44 | 1014.1 |
| 20260509153005 | 71 | 331 | 4.0 | 11.0 | 0.00 | 0.00 | 0.00 | 44 | 1014.1 |
| 20260509151503 | 72 | 360 | 6.0 | 14.0 | 0.00 | 0.00 | 0.00 | 44 | 1014.2 |
| 20260509150001 | 72 | 360 | 9.0 | 13.0 | 0.00 | 0.00 | 0.00 | 45 | 1014.2 |
| 20260509144602 | 71 | 64 | 5.0 | 13.0 | 0.00 | 0.00 | 0.00 | 46 | 1014.2 |
| 20260509143109 | 72 | 42 | 4.0 | 14.0 | 0.00 | 0.00 | 0.00 | 46 | 1014.3 |
| 20260509141557 | 72 | 320 | 4.0 | 12.0 | 0.00 | 0.00 | 0.00 | 45 | 1014.4 |
| 20260509140055 | 71 | 45 | 6.0 | 12.0 | 0.00 | 0.00 | 0.00 | 45 | 1014.5 |
| 20260509134552 | 72 | 51 | 8.0 | 12.0 | 0.00 | 0.00 | 0.00 | 46 | 1014.7 |
| 20260509133104 | 71 | 56 | 5.0 | 11.0 | 0.00 | 0.00 | 0.00 | 48 | 1014.7 |
| 20260509131549 | 72 | 34 | 6.0 | 13.0 | 0.00 | 0.00 | 0.00 | 47 | 1014.9 |
| 20260509130049 | 72 | 28 | 6.0 | 10.0 | 0.00 | 0.00 | 0.00 | 44 | 1015.0 |
| 20260509124549 | 71 | 15 | 6.0 | 13.0 | 0.00 | 0.00 | 0.00 | 48 | 1015.2 |
| 20260509123044 | 71 | 31 | 7.0 | 15.0 | 0.00 | 0.00 | 0.00 | 48 | 1015.4 |
| 20260509121549 | 71 | 72 | 6.0 | 14.0 | 0.00 | 0.00 | 0.00 | 49 | 1015.5 |
| 20260509120039 | 70 | 63 | 8.0 | 13.0 | 0.00 | 0.00 | 0.00 | 48 | 1015.6 |
| 20260509114537 | 70 | 336 | 6.0 | 11.0 | 0.00 | 0.00 | 0.00 | 46 | 1015.8 |
| 20260509113036 | 70 | 11 | 5.0 | 13.0 | 0.00 | 0.00 | 0.00 | 49 | 1015.9 |
| 20260509111531 | 70 | 57 | 4.0 | 12.0 | 0.00 | 0.00 | 0.00 | 52 | 1016.2 |
| 20260509110030 | 69 | 23 | 5.0 | 12.0 | 0.00 | 0.00 | 0.00 | 52 | 1016.2 |
| 20260509104527 | 69 | 5 | 5.0 | 12.0 | 0.00 | 0.00 | 0.00 | 51 | 1016.3 |
| 20260509103024 | 69 | 360 | 5.0 | 12.0 | 0.00 | 0.00 | 0.00 | 54 | 1016.4 |
| 20260509101529 | 68 | 55 | 5.0 | 11.0 | 0.00 | 0.00 | 0.00 | 54 | 1016.4 |
| 20260509100022 | 68 | 44 | 6.0 | 11.0 | 0.00 | 0.00 | 0.00 | 51 | 1016.6 |
| 20260509094528 | 67 | 67 | 4.0 | 11.0 | 0.00 | 0.00 | 0.00 | 53 | 1016.6 |
| 20260509093018 | 67 | 22 | 6.0 | 11.0 | 0.00 | 0.00 | 0.00 | 55 | 1016.6 |
| 20260509091517 | 66 | 36 | 4.0 | 11.0 | 0.00 | 0.00 | 0.00 | 55 | 1016.6 |
| 20260509090013 | 66 | 355 | 4.0 | 12.0 | 0.00 | 0.00 | 0.00 | 58 | 1016.7 |
| 20260509084509 | 66 | 72 | 6.0 | 11.0 | 0.00 | 0.00 | 0.00 | 59 | 1016.6 |
| 20260509083006 | 66 | 27 | 6.0 | 11.0 | 0.00 | 0.00 | 0.00 | 60 | 1016.7 |
| 20260509081504 | 64 | 69 | 4.0 | 9.0 | 0.00 | 0.00 | 0.00 | 63 | 1016.7 |
| 20260509080056 | 63 | 38 | 5.0 | 10.0 | 0.00 | 0.00 | 0.00 | 64 | 1016.8 |